Flag for United Kingdom Weather past 2 weeks in Aberdeen, Scotland, United Kingdom

Now
43 °F

Passing clouds.


Feels Like: 36 °F
Forecast: 41 / 46 °F
Wind: 12 mph from Southwest

Location: Aberdeen / Dyce

Current Time: Feb 28, 2015 at 6:30:21 AM

Latest Report: Feb 28, 2015 at 5:50 AM


Visibility: N/A

Pressure: 29.45 "Hg

Humidity: 93%

Dew point: 41 °F

Location of AberdeenLocation

Historic Weather in Aberdeen — Graph

°F

Aberdeen temperature yesterday

Maximum temperature yesterday: 46 °F (at 12:20 PM)
Minimum temperature yesterday: 34 °F (at 1:50 AM)
Average temperature yesterday: 40 °F

Past Weeks' High & Low Weather Summary

 TemperatureHumidityPressure
High55 °F (Feb 18, 1:20 PM)100% (Feb 13, 4:20 PM)30.30 "Hg (Feb 13, 4:20 PM)
Low30 °F (Feb 20, 9:20 PM)46% (Feb 26, 12:50 PM)28.56 "Hg (Feb 23, 4:50 PM)
Average41 °F80%29.58 "Hg
* Reported Feb 13 5:20 AM — Feb 28 5:20 AM, Aberdeen, Weather by CustomWeather, © 2015

Note: Actual official high and low records may vary slightly from our data, if they occured in-between our weather recording intervals... More about our weather records

Advertising

Aberdeen weather history for previous 24 hours

 ConditionsComfort  
Time TempWeatherWind HumidityBarometerVisibility
5:20 AM
Sat, Feb 28
43 °FClear.13 mph93%29.45 "Hg10 mi
4:50 AM43 °FQuite cool.13 mph87%29.45 "HgN/A
4:20 AM43 °FClear.16 mph87%29.45 "Hg10 mi
3:20 AM43 °FPassing clouds.16 mph87%29.45 "HgN/A
2:50 AM43 °FPassing clouds.16 mph87%29.45 "HgN/A
2:20 AM43 °FPassing clouds.14 mph87%29.45 "HgN/A
1:50 AM43 °FPassing clouds.15 mph87%29.47 "HgN/A
1:20 AM43 °FPassing clouds.15 mph81%29.47 "HgN/A
12:50 AM43 °FPassing clouds.21 mph81%29.47 "HgN/A
12:20 AM41 °FPassing clouds.18 mph87%29.50 "HgN/A
11:50 PM
Fri, Feb 27
41 °FPassing clouds.13 mph81%29.53 "HgN/A
11:20 PM41 °FPassing clouds.12 mph81%29.56 "HgN/A
10:50 PM41 °FPassing clouds.13 mph76%29.59 "HgN/A
10:20 PM41 °FPassing clouds.15 mph76%29.59 "HgN/A
9:50 PM41 °FPassing clouds.13 mph76%29.62 "HgN/A
9:20 PM41 °FPassing clouds.18 mph76%29.62 "HgN/A
8:50 PM41 °FPassing clouds.18 mph76%29.65 "HgN/A
8:20 PM41 °FPassing clouds.18 mph76%29.65 "HgN/A
7:50 PM41 °FPassing clouds.13 mph76%29.68 "HgN/A
7:20 PM41 °FPassing clouds.18 mph76%29.68 "HgN/A
6:50 PM41 °FClear.15 mph76%29.68 "Hg10 mi
6:20 PM41 °FPassing clouds.12 mph76%29.71 "HgN/A
5:50 PM41 °FPassing clouds.12 mph76%29.74 "HgN/A
5:20 PM41 °FPassing clouds.10 mph76%29.74 "HgN/A
4:50 PM43 °FPassing clouds.13 mph71%29.74 "HgN/A
4:20 PM43 °FPassing clouds.10 mph71%29.74 "HgN/A
3:50 PM43 °FSunny.12 mph71%29.77 "Hg10 mi
3:20 PM43 °FPassing clouds.12 mph71%29.77 "HgN/A
2:50 PM43 °FSunny.12 mph71%29.77 "Hg10 mi
2:20 PM43 °FSunny.14 mph71%29.77 "Hg10 mi
1:50 PM45 °FSunny.13 mph61%29.77 "Hg10 mi
1:20 PM45 °FPassing clouds.10 mph57%29.77 "HgN/A
12:50 PM45 °FPassing clouds.13 mph57%29.80 "HgN/A
12:20 PM46 °FPassing clouds.10 mph57%29.80 "HgN/A
11:50 AM45 °FSunny.9 mph61%29.80 "Hg10 mi
11:20 AM45 °FPassing clouds.12 mph66%29.80 "HgN/A
10:50 AM43 °FSunny.10 mph71%29.77 "Hg10 mi
10:20 AM43 °FPassing clouds.12 mph66%29.77 "HgN/A
9:50 AM41 °FPassing clouds.12 mph70%29.77 "HgN/A
9:20 AM41 °FSunny.12 mph70%29.77 "Hg10 mi
8:50 AM39 °FSunny.13 mph75%29.77 "Hg10 mi
8:20 AM39 °FSunny.12 mph70%29.77 "Hg10 mi
7:50 AM37 °FSunny.14 mph75%29.74 "Hg10 mi
7:20 AM37 °FSunny.12 mph70%29.74 "Hg10 mi
6:50 AM37 °FClear.10 mph75%29.71 "Hg10 mi
6:20 AM36 °FClear.6 mph75%29.71 "Hg10 mi
Weather by CustomWeather, © 2015

See weather overviewHow to use our weather pages